Humidity-temperature Sensor

Selected Measurement Type: Relative Humidity

 
Relative Humidity [%]     6 entries per hour
Showing data from 9/6/2017 (00:00:00 Z) to 9/5/2017 (00:01:00 Z)
Previous Next [ Day | 3-Days | 7-Days ]
First Last
Prev [ Day | 3-Days | 7-Days ] Next
First Last

Start Time:     :
End Time:     :     
Time (in GMT) :00 :50 :40 :30 :20 :10
Previous Next [ Day | 3-Days | 7-Days ]
First Last
Prev [ Day | 3-Days | 7-Days ] Next
First Last


123 => good data
MM => data is determined as missing
-- => data not received/configured
Back to Top Back to Top
9/6/2017 00:00 to 23:10 70.93 71.18 70.99 70.32 69.10 72.36
9/5/2017 23:00 to 22:10 70.97 72.45 71.69 72.28 73.04 75.88
9/5/2017 22:00 to 21:10 74.51 73.50 74.45 73.06 73.84 78.37
9/5/2017 21:00 to 20:10 79.88 81.48 82.14 80.16 82.62 79.99
9/5/2017 20:00 to 19:10 80.62 79.44 78.37 77.71 76.34 79.86
9/5/2017 19:00 to 18:10 80.68 78.47 79.42 83.04 81.48 83.80
9/5/2017 18:00 to 17:10 85.55 85.23 84.52 84.18 84.26 84.77
9/5/2017 17:00 to 16:10 83.08 86.01 89.42 87.15 86.03 78.39
9/5/2017 16:00 to 15:10 77.38 81.69 86.16 91.70 89.32 78.96
9/5/2017 15:00 to 14:10 80.09 80.18 81.59 81.57 79.27 81.34
9/5/2017 14:00 to 13:10 81.10 81.23 81.80 78.66 77.12 78.13
9/5/2017 13:00 to 12:10 78.49 84.56 84.09 85.53 85.21 85.13
9/5/2017 12:00 to 11:10 86.10 86.52 86.37 85.97 85.99 85.27
9/5/2017 11:00 to 10:10 85.17 84.35 83.59 84.26 84.31 84.90
9/5/2017 10:00 to 9:10 85.13 85.32 85.55 85.63 86.90 87.38
9/5/2017 09:00 to 8:10 87.63 87.57 87.23 86.79 86.75 86.18
9/5/2017 08:00 to 7:10 86.45 86.24 86.52 86.92 87.40 87.04
9/5/2017 07:00 to 6:10 86.45 86.56 86.14 86.69 88.18 87.36
9/5/2017 06:00 to 5:10 -- -- -- -- -- --
9/5/2017 05:00 to 4:10 90.56 91.36 91.78 91.61 90.58 87.09
9/5/2017 04:00 to 3:10 86.66 85.67 83.23 83.36 85.80 87.93
9/5/2017 03:00 to 2:10 88.24 89.97 89.36 89.80 91.99 92.44
9/5/2017 02:00 to 1:10 94.33 93.68 92.77 92.22 89.72 86.33
9/5/2017 01:00 to 0:10 87.23 87.40 87.82 87.30 88.94 88.81